Location: Borovka
(49.7741°N, 14.5280°E)
Time: 06:11:54
(UTC+00:00)

Cosmos 468 Rocket - Pass Details

Date: 17 November 2025
Orbit: 740 x 774 km, 74.0° (Epoch: 11 December)

Event Time Altitude Azimuth Distance (km) Brightness Sun altitude
Rises 16:39:20 0° 337° (NNW) 3,239 7.4 -13.3°
Reaches altitude 10° 16:41:45 10° 341° (NNW) 2,304 6.5 -13.7°
Maximum altitude 16:46:57 64° 63° (ENE) 840 3.9 -14.5°
Drops below altitude 10° 16:52:03 10° 145° (SE) 2,266 6.2 -15.3°
Sets 16:54:24 0° 148° (SSE) 3,182 7.0 -15.7°
